GW3667 Weather Reports


time (UTC)temp
C
wind
direction
speed
KPH
gust
KPH
rain 1hr
cm
rain 24hr
cm
rain mn
cm
humidity
%
barometer
mb
20260507161505 16 252 3.2 6.4 0.00 0.00 0.00 87 1017.7
20260507160009 16 223 1.6 6.4 0.00 0.00 0.00 88 1017.8
20260507154513 15 247 3.2 9.7 0.00 0.00 0.00 89 1017.7
20260507153005 15 222 4.8 8.0 0.00 0.00 0.00 89 1017.7
20260507151503 15 257 3.2 8.0 0.00 0.00 0.00 90 1017.6
20260507150039 15 257 1.6 4.8 0.00 0.00 0.00 91 1017.5
20260507144509 15 276 0.0 4.8 0.00 0.00 0.00 91 1017.4
20260507143038 15 251 4.8 9.7 0.00 0.00 0.00 91 1017.3
20260507141546 14 299 1.6 6.4 0.00 0.00 0.00 92 1017.2
20260507140034 14 266 1.6 4.8 0.00 0.00 0.00 91 1017.1
20260507134510 14 274 0.0 6.4 0.00 0.00 0.00 91 1017.0
20260507133019 14 351 1.6 4.8 0.00 0.00 0.00 91 1017.0
20260507131530 14 271 1.6 6.4 0.00 0.00 0.00 91 1017.0
20260507130004 14 246 1.6 6.4 0.00 0.00 0.00 91 1016.8
20260507124510 14 270 3.2 6.4 0.00 0.00 0.00 91 1016.7
20260507123015 14 249 0.0 3.2 0.00 0.00 0.00 91 1016.6
20260507121515 14 309 0.0 6.4 0.00 0.00 0.00 91 1016.7
20260507120024 14 297 1.6 9.7 0.00 0.00 0.00 91 1016.7
20260507114526 14 309 3.2 11.3 0.00 0.00 0.00 92 1016.7
20260507113012 14 270 3.2 6.4 0.00 0.00 0.00 92 1016.6
20260507111515 14 252 1.6 6.4 0.00 0.00 0.00 92 1016.7
20260507110020 14 244 1.6 4.8 0.00 0.00 0.00 92 1016.7
20260507104523 14 321 1.6 4.8 0.00 0.00 0.00 92 1016.8
20260507103008 14 314 0.0 4.8 0.00 0.00 0.00 92 1016.9
20260507101513 14 282 1.6 4.8 0.00 0.00 0.00 92 1017.0
20260507100021 14 310 3.2 6.4 0.00 0.00 0.00 92 1017.2
20260507094526 13 281 3.2 6.4 0.00 0.00 0.00 92 1017.2
20260507093028 13 295 3.2 6.4 0.00 0.00 0.00 92 1017.3
20260507091511 14 288 0.0 6.4 0.00 0.00 0.00 92 1017.4
20260507090016 14 298 1.6 4.8 0.00 0.00 0.00 92 1017.5
20260507084521 14 312 0.0 4.8 0.00 0.00 0.00 92 1017.7
20260507083024 14 246 1.6 9.7 0.00 0.00 0.00 92 1017.9
20260507081512 14 304 1.6 8.0 0.00 0.00 0.00 92 1018.0
20260507080003 13 265 3.2 8.0 0.00 0.00 0.00 91 1017.9
20260507074504 13 277 1.6 6.4 0.00 0.00 0.00 91 1018.0
20260507073004 13 289 1.6 4.8 0.00 0.00 0.00 91 1018.0
20260507071506 13 309 0.0 4.8 0.00 0.00 0.00 91 1018.1
20260507070018 13 267 0.0 4.8 0.00 0.00 0.00 91 1018.2
20260507064516 14 288 3.2 6.4 0.00 0.00 0.00 91 1018.2
20260507063002 14 263 1.6 4.8 0.00 0.00 0.00 91 1018.3
20260507061504 14 288 1.6 6.4 0.00 0.00 0.00 91 1018.3
20260507060015 15 311 1.6 4.8 0.00 0.00 0.00 91 1018.3
20260507054511 15 344 1.6 6.4 0.00 0.00 0.00 91 1018.3
20260507053004 15 279 3.2 8.0 0.00 0.00 0.00 91 1018.2
20260507051504 15 336 3.2 6.4 0.00 0.00 0.00 90 1018.2
20260507050015 15 302 1.6 6.4 0.00 0.00 0.00 90 1018.3
20260507044511 15 314 3.2 8.0 0.00 0.00 0.00 90 1018.3
20260507043015 15 305 1.6 9.7 0.00 0.00 0.00 90 1018.2
20260507041503 15 298 1.6 11.3 0.00 0.00 0.00 89 1018.1
20260507040005 15 281 3.2 6.4 0.00 0.00 0.00 89 1018.0
20260507034507 15 261 3.2 17.7 0.00 0.00 0.00 88 1017.9
20260507033013 15 271 4.8 11.3 0.00 0.00 0.00 87 1017.9
20260507031524 15 279 1.6 12.9 0.00 0.00 0.00 87 1017.7
20260507030004 15 293 3.2 11.3 0.00 0.00 0.00 86 1017.6
20260507024507 15 286 3.2 14.5 0.00 0.00 0.00 85 1017.6
20260507023020 16 250 1.6 16.1 0.00 0.00 0.00 85 1017.4
20260507021513 16 247 4.8 11.3 0.00 0.00 0.00 84 1017.5
20260507020024 16 298 3.2 16.1 0.00 0.00 0.00 83 1017.3
20260507014516 16 265 8.0 17.7 0.00 0.00 0.00 82 1017.4
20260507013003 17 277 6.4 17.7 0.00 0.00 0.00 79 1017.4
20260507011529 18 252 9.7 17.7 0.00 0.00 0.00 77 1017.3
20260507010014 18 331 6.4 19.3 0.00 0.00 0.00 75 1017.4
20260507004520 19 240 6.4 19.3 0.00 0.00 0.00 75 1017.3
20260507003020 19 254 8.0 22.5 0.00 0.00 0.00 74 1017.3
20260507001527 19 256 6.4 24.1 0.00 0.00 0.00 75 1017.1
20260507000023 19 222 8.0 20.9 0.00 0.00 0.00 74 1017.1
20260506234523 19 263 9.7 22.5 0.00 0.00 0.00 74 1017.2
20260506233019 19 261 12.9 24.1 0.00 0.00 0.00 72 1017.2
20260506231523 20 267 12.9 24.1 0.00 0.00 0.00 72 1017.1
20260506230024 20 286 11.3 22.5 0.00 0.00 0.00 71 1017.2
20260506224526 20 250 12.9 20.9 0.00 0.00 0.00 71 1017.2
20260506223019 20 229 11.3 20.9 0.00 0.00 0.00 70 1017.5
20260506221522 20 245 12.9 20.9 0.00 0.00 0.00 69 1017.4
20260506220006 20 281 14.5 24.1 0.00 0.00 0.00 70 1017.5
20260506214526 20 265 11.3 22.5 0.00 0.00 0.00 70 1017.6
20260506213028 20 275 12.9 25.7 0.00 0.00 0.00 69 1017.6
20260506211524 20 240 16.1 29.0 0.00 0.00 0.00 69 1017.8
20260506210028 20 262 11.3 24.1 0.00 0.00 0.00 67 1017.9
20260506204510 20 225 17.7 24.1 0.00 0.00 0.00 67 1017.9
20260506203004 20 198 9.7 25.7 0.00 0.00 0.00 69 1018.0
20260506201503 20 264 9.7 22.5 0.00 0.00 0.00 68 1018.1
20260506200003 21 278 16.1 24.1 0.00 0.00 0.00 66 1018.4
20260506194507 20 276 12.9 20.9 0.00 0.00 0.00 69 1018.6
20260506193014 20 275 9.7 19.3 0.00 0.03 0.00 66 1018.7
20260506191503 20 286 11.3 19.3 0.00 0.03 0.00 64 1018.8
20260506190028 20 288 8.0 17.7 0.00 0.03 0.00 65 1018.9
20260506184535 20 249 6.4 19.3 0.00 0.03 0.00 65 1019.1
20260506183012 20 248 9.7 19.3 0.00 0.03 0.00 65 1019.2
20260506181516 20 271 6.4 12.9 0.00 0.03 0.00 66 1019.2
20260506180005 18 258 4.8 16.1 0.00 0.03 0.00 67 1019.2
20260506174522 19 246 6.4 14.5 0.00 0.03 0.00 68 1019.3
20260506173016 18 307 4.8 11.3 0.00 0.03 0.00 70 1019.2
20260506171529 18 240 4.8 12.9 0.00 0.03 0.00 72 1019.6
20260506170021 18 248 3.2 12.9 0.00 0.03 0.00 72 1019.4
20260506164525 17 267 4.8 14.5 0.00 0.03 0.00 74 1019.3
20260506163031 17 240 6.4 12.9 0.00 0.03 0.00 74 1019.3